Date Time,Air Temp,Sky Temp,Clarity,Light Level,Rain Sensor,Readings
2011-07-01 00:00:04,24.2,1.8,22.5,0.0,2.3,111
2011-07-01 00:05:04,24.3,0.7,23.6,0.0,2.3,112
2011-07-01 00:10:04,24.3,-1.5,25.8,0.0,2.3,111
2011-07-01 00:15:04,23.8,0.9,22.9,0.0,2.3,112
2011-07-01 00:20:04,24.2,1.4,22.8,0.0,2.3,111
2011-07-01 00:25:05,24.2,-3.4,27.6,0.0,2.3,111
2011-07-01 00:30:05,24.1,-5.5,29.6,0.0,2.3,112
2011-07-01 00:35:05,24.0,-5.7,29.8,0.0,2.3,110
2011-07-01 00:40:05,24.0,-6.5,30.5,0.0,2.3,112
2011-07-01 00:45:05,24.0,-6.9,30.8,0.0,2.3,112
2011-07-01 00:50:05,23.8,-7.3,31.1,0.0,2.3,111
2011-07-01 00:55:05,23.7,-7.4,31.1,0.0,2.3,112
2011-07-01 01:00:05,23.7,-7.5,31.1,0.0,2.3,111
2011-07-01 01:05:05,23.6,-7.6,31.2,0.0,2.2,111
2011-07-01 01:10:05,23.5,-7.8,31.3,0.0,2.2,111
2011-07-01 01:15:05,23.4,-7.9,31.3,0.0,2.2,111
2011-07-01 01:20:05,23.3,-8.0,31.4,0.0,2.3,111
2011-07-01 01:25:05,23.2,-8.3,31.5,0.0,2.3,112
2011-07-01 01:30:05,23.2,-8.4,31.6,0.0,2.3,112
2011-07-01 01:35:05,23.2,-8.6,31.7,0.0,2.3,112
2011-07-01 01:40:05,23.2,-8.5,31.7,0.0,2.3,112
2011-07-01 01:45:05,23.1,-8.6,31.7,0.0,2.3,112
2011-07-01 01:50:05,23.1,-8.6,31.7,0.0,2.3,112
2011-07-01 01:55:05,23.1,-8.8,31.9,0.0,2.3,112
2011-07-01 02:00:05,23.1,-8.6,31.7,0.0,2.3,113
2011-07-01 02:05:05,23.1,-8.5,31.6,0.0,2.3,112
2011-07-01 02:10:05,23.1,-8.8,31.8,0.0,2.3,112
2011-07-01 02:15:05,23.1,-9.0,32.1,0.0,2.3,112
2011-07-01 02:20:05,23.1,-9.1,32.2,0.0,2.3,112
2011-07-01 02:25:05,23.1,-9.1,32.2,0.0,2.3,111
2011-07-01 02:30:05,23.1,-9.2,32.3,0.0,2.3,112
2011-07-01 02:35:05,23.0,-9.3,32.4,0.0,2.3,111
2011-07-01 02:40:05,22.9,-9.4,32.3,0.0,2.3,112
2011-07-01 02:45:05,22.8,-9.4,32.2,0.0,2.4,112
2011-07-01 02:50:05,22.7,-9.4,32.1,0.0,2.3,111
2011-07-01 02:55:05,22.7,-9.6,32.3,0.0,2.3,111
2011-07-01 03:00:05,22.6,-9.7,32.4,0.0,2.3,112
2011-07-01 03:05:05,22.6,-9.7,32.3,0.1,2.3,112
2011-07-01 03:10:05,22.5,-9.8,32.3,0.1,2.3,112
2011-07-01 03:15:05,22.4,-9.9,32.3,0.1,2.3,112
2011-07-01 03:20:05,22.4,-10.0,32.4,0.1,2.3,112
2011-07-01 03:25:05,22.4,-10.2,32.6,0.2,2.3,112
2011-07-01 03:30:05,22.4,-10.3,32.7,0.3,2.3,112
2011-07-01 03:35:05,22.4,-10.3,32.7,0.4,2.3,112
2011-07-01 03:40:05,22.4,-10.2,32.6,0.5,2.3,112
2011-07-01 03:45:05,22.3,-10.2,32.6,0.7,2.2,112
2011-07-01 03:50:05,22.3,-10.2,32.6,1.0,2.2,112
2011-07-01 03:55:05,22.3,-10.3,32.6,1.5,2.2,113
2011-07-01 04:00:05,22.2,-10.4,32.7,2.2,2.2,111
2011-07-01 04:05:05,21.8,-10.5,32.3,3.4,2.3,112
2011-07-01 04:10:05,22.2,-10.6,32.8,5.2,2.3,112
2011-07-01 04:15:05,22.2,-10.6,32.7,7.8,2.3,112
2011-07-01 04:20:05,22.1,-10.7,32.8,11.2,2.3,112
2011-07-01 04:25:05,22.2,-10.6,32.8,15.1,2.3,111
2011-07-01 04:30:05,22.2,-10.7,32.9,19.3,2.3,112
2011-07-01 04:35:05,22.1,-10.7,32.9,23.0,2.3,112
2011-07-01 04:40:05,22.1,-10.7,32.8,25.9,2.3,112
2011-07-01 04:45:05,22.1,-10.7,32.8,28.0,2.3,111
2011-07-01 04:50:05,22.1,-10.7,32.8,29.5,2.3,112
2011-07-01 04:55:05,22.1,-10.7,32.8,30.4,2.3,112
2011-07-01 05:00:05,22.0,-10.7,32.7,30.9,2.3,112
2011-07-01 05:05:05,22.0,-10.8,32.8,31.3,2.3,112
2011-07-01 05:10:05,22.0,-10.7,32.8,31.5,2.3,111
2011-07-01 05:15:05,22.1,-10.8,32.8,31.7,2.3,112
2011-07-01 05:20:05,21.7,-10.7,32.4,31.9,2.3,111
2011-07-01 05:25:05,22.2,-10.7,32.9,32.0,2.3,112
2011-07-01 05:30:05,22.3,-10.7,33.0,32.0,2.2,112
2011-07-01 05:35:05,22.3,-10.7,33.1,32.0,2.2,111
2011-07-01 05:40:05,22.4,-10.5,32.9,32.1,2.3,112
2011-07-01 05:45:05,22.5,-10.7,33.2,32.1,2.3,112
2011-07-01 05:50:05,22.6,-10.7,33.3,32.1,2.3,111
2011-07-01 05:55:05,22.6,-10.8,33.4,32.1,2.3,112
2011-07-01 06:00:05,22.7,-10.7,33.4,32.2,2.3,112
2011-07-01 06:05:05,22.7,-10.8,33.4,32.2,2.3,111
2011-07-01 06:10:05,22.7,-10.8,33.5,32.2,2.3,112
2011-07-01 06:15:05,22.8,-10.8,33.6,32.2,2.3,111
2011-07-01 06:20:05,22.9,-10.7,33.5,32.2,2.3,112
2011-07-01 06:25:05,23.0,-10.7,33.6,32.2,2.3,112
2011-07-01 06:30:05,23.1,-10.6,33.7,32.3,2.4,112
2011-07-01 06:35:05,23.2,-10.7,33.9,32.3,2.3,112
2011-07-01 06:40:05,23.3,-10.6,33.9,32.3,2.3,111
2011-07-01 06:45:05,23.3,-10.5,33.8,32.3,2.3,112
2011-07-01 06:50:05,23.4,-10.6,34.0,32.3,2.3,112
2011-07-01 06:55:05,23.5,-10.4,33.9,32.3,2.3,112
2011-07-01 07:00:05,23.7,-10.1,33.8,32.3,2.3,112
2011-07-01 07:05:05,23.9,-9.9,33.8,32.3,2.1,112
2011-07-01 07:10:05,24.0,-9.7,33.7,32.3,2.3,112
2011-07-01 07:15:05,24.3,-9.7,33.9,32.3,2.3,112
2011-07-01 07:20:05,24.5,-9.8,34.3,32.3,2.3,112
2011-07-01 07:25:05,24.6,-9.8,34.4,32.3,2.3,111
2011-07-01 07:30:05,24.8,-9.9,34.8,32.3,2.3,112
2011-07-01 07:35:05,24.9,-10.0,34.9,32.3,2.3,112
2011-07-01 07:40:05,24.9,-9.8,34.7,32.3,2.3,112
2011-07-01 07:45:05,24.9,-9.9,34.8,32.3,2.3,112
2011-07-01 07:50:05,25.0,-9.8,34.8,32.3,2.3,112
2011-07-01 07:55:05,25.1,-9.8,34.9,32.3,2.3,112
2011-07-01 08:00:05,25.2,-9.0,34.2,32.4,2.3,112
2011-07-01 08:05:05,25.4,-9.0,34.4,32.4,2.3,112
2011-07-01 08:10:05,25.5,-9.5,35.0,32.4,2.3,111
2011-07-01 08:15:05,25.5,-9.8,35.3,32.3,2.3,112
2011-07-01 08:20:05,25.5,-9.4,34.9,32.3,2.3,112
2011-07-01 08:25:05,25.6,-9.2,34.8,32.3,2.3,112
2011-07-01 08:30:05,25.8,-9.6,35.4,32.3,2.1,111
2011-07-01 08:35:05,25.9,-9.4,35.3,32.4,2.1,112
2011-07-01 08:40:05,26.0,-8.9,34.9,32.3,2.2,111
2011-07-01 08:45:05,26.1,-9.2,35.3,32.3,2.2,112
2011-07-01 08:50:05,25.8,-9.2,35.0,32.3,2.1,112
2011-07-01 08:55:05,25.6,-9.1,34.7,32.4,2.2,112
2011-07-01 09:00:05,25.5,-8.8,34.3,32.4,2.3,111
2011-07-01 09:05:05,25.6,-8.7,34.3,32.4,2.3,112
2011-07-01 09:10:05,25.7,-8.0,33.7,32.4,2.3,112
2011-07-01 09:15:05,26.0,-7.9,33.9,32.4,2.2,111
2011-07-01 09:20:05,26.4,-7.5,33.9,32.4,2.3,111
2011-07-01 09:25:05,26.8,-7.4,34.2,32.4,2.3,112
2011-07-01 09:30:05,27.1,-7.0,34.1,32.5,2.3,111
2011-07-01 09:35:05,27.3,-7.0,34.3,32.5,2.3,112
2011-07-01 09:40:05,27.5,-6.8,34.3,32.5,2.3,111
2011-07-01 09:45:05,27.7,-6.7,34.4,32.5,2.3,112
2011-07-01 09:50:05,27.8,-6.5,34.4,32.5,2.3,111
2011-07-01 09:55:05,28.0,-6.4,34.4,32.5,2.3,112
2011-07-01 10:00:05,28.1,-5.8,33.8,32.5,2.3,112
2011-07-01 10:05:05,28.4,-5.6,34.0,32.5,2.3,111
2011-07-01 10:10:05,28.7,-5.1,33.8,32.5,2.3,111
2011-07-01 10:15:05,29.0,-4.6,33.7,32.6,2.3,112
2011-07-01 10:20:05,29.3,-4.1,33.4,32.6,2.3,112
2011-07-01 10:25:05,29.8,-4.3,34.1,32.6,2.3,112
2011-07-01 10:30:05,29.9,-3.3,33.2,32.6,2.3,111
2011-07-01 10:35:05,30.2,-2.3,32.5,32.6,2.3,112
2011-07-01 10:40:05,30.6,-1.5,32.1,32.6,2.3,112
2011-07-01 10:45:05,30.4,-0.3,30.7,32.6,2.3,111
2011-07-01 10:50:05,30.9,0.7,30.3,32.6,2.3,112
2011-07-01 10:55:05,31.4,0.6,30.8,32.5,2.3,111
2011-07-01 11:00:05,30.7,2.1,28.6,32.6,2.3,111
2011-07-01 11:05:05,30.2,6.0,24.2,32.5,2.3,112
2011-07-01 11:10:05,29.6,4.4,25.2,32.6,2.3,111
2011-07-01 11:15:05,29.4,4.8,24.6,32.6,2.3,112
2011-07-01 11:20:05,29.1,3.3,25.9,32.5,2.3,111
2011-07-01 11:25:05,28.4,7.2,21.2,32.6,2.3,111
2011-07-01 11:30:05,27.7,9.7,18.1,32.6,2.3,111
2011-07-01 11:35:05,27.5,7.7,19.8,32.6,2.3,112
2011-07-01 11:40:05,29.4,6.6,22.8,32.5,2.3,111
2011-07-01 11:45:05,29.8,8.0,21.8,32.6,2.3,111
2011-07-01 11:50:05,28.9,8.9,20.0,32.6,2.3,112
2011-07-01 11:55:05,26.7,9.8,17.0,32.5,2.3,111
2011-07-01 12:00:05,25.2,9.2,16.0,32.5,2.3,112
2011-07-01 12:05:05,24.9,9.6,15.3,32.6,2.4,111
2011-07-01 12:10:05,26.2,10.9,15.3,32.6,2.3,111
2011-07-01 12:15:05,26.2,10.2,16.0,32.5,2.3,112
2011-07-01 12:20:05,25.3,10.1,15.3,32.5,2.3,111
2011-07-01 12:25:05,24.7,9.9,14.8,32.6,2.3,112
2011-07-01 12:30:05,24.4,7.9,16.5,32.6,2.3,111
2011-07-01 12:35:05,25.4,9.6,15.8,32.6,2.4,112
2011-07-01 12:40:05,28.8,7.4,21.4,32.6,2.3,111
2011-07-01 12:45:05,30.1,8.4,21.7,32.6,2.3,112
2011-07-01 12:50:05,29.5,9.7,19.9,32.5,2.3,111
2011-07-01 12:55:05,26.9,9.2,17.7,32.5,2.3,112
2011-07-01 13:00:05,25.5,8.7,16.8,32.5,2.3,112
2011-07-01 13:05:05,24.9,9.0,15.9,32.6,2.3,111
2011-07-01 13:10:05,24.9,9.4,15.5,32.6,2.3,111
2011-07-01 13:15:05,25.2,10.2,15.0,32.6,2.3,112
2011-07-01 13:20:05,26.2,8.4,17.8,32.6,2.3,111
2011-07-01 13:25:05,29.4,9.0,20.4,32.6,2.4,112
2011-07-01 13:30:05,33.1,11.5,21.6,32.6,1.5,111
2011-07-01 13:35:05,34.8,10.0,24.8,32.6,1.7,111
2011-07-01 13:40:05,33.2,7.3,25.8,32.6,1.3,111
2011-07-01 13:45:05,31.8,7.4,24.4,32.6,1.8,112
2011-07-01 13:50:05,31.3,6.7,24.6,32.6,2.3,111
2011-07-01 13:55:05,33.4,10.3,23.2,32.6,1.5,112
2011-07-01 14:00:05,35.9,10.8,25.1,32.6,2.0,111
2011-07-01 14:05:05,34.3,10.5,23.8,32.5,1.7,112
2011-07-01 14:10:05,32.5,10.3,22.2,32.5,1.3,111
2011-07-01 14:15:05,31.1,10.7,20.4,32.6,1.8,111
2011-07-01 14:20:05,28.4,8.6,19.7,32.6,2.3,112
2011-07-01 14:25:05,29.5,6.0,23.5,32.6,2.3,112
2011-07-01 14:30:05,30.3,12.5,17.8,32.6,2.0,111
2011-07-01 14:35:05,33.5,9.5,24.0,32.6,1.6,112
2011-07-01 14:40:05,34.2,9.0,25.2,32.6,1.6,111
2011-07-01 14:45:05,33.5,9.9,23.6,32.6,1.4,111
2011-07-01 14:50:05,32.9,10.2,22.7,32.6,1.2,112
2011-07-01 14:55:05,32.2,8.4,23.8,32.6,1.3,112
2011-07-01 15:00:05,32.0,9.6,22.4,32.6,1.2,111
2011-07-01 15:05:05,33.1,7.7,25.4,32.6,1.5,112
2011-07-01 15:10:05,34.0,8.5,25.6,32.6,1.7,111
2011-07-01 15:15:05,33.2,10.0,23.2,32.6,1.3,111
2011-07-01 15:20:05,32.2,10.4,21.9,32.6,1.2,112
2011-07-01 15:25:05,31.8,10.0,21.8,32.6,1.2,112
2011-07-01 15:30:06,31.8,10.1,21.7,32.6,1.2,111
2011-07-01 15:35:06,32.5,9.2,23.3,32.6,1.2,111
2011-07-01 15:40:06,33.1,7.4,25.7,32.6,1.1,111
2011-07-01 15:45:06,33.8,6.1,27.6,32.6,1.4,111
2011-07-01 15:50:06,35.3,8.6,26.7,32.6,1.9,112
2011-07-01 15:55:06,36.5,8.0,28.5,32.6,2.4,111
2011-07-01 16:00:06,35.6,5.0,30.5,32.6,2.3,112
2011-07-01 16:05:06,33.4,5.0,28.5,32.6,1.7,112
2011-07-01 16:10:06,32.1,4.8,27.4,32.6,1.2,111
2011-07-01 16:15:06,32.1,5.0,27.1,32.6,1.3,112
2011-07-01 16:20:06,32.5,7.2,25.2,32.6,1.3,111
2011-07-01 16:25:06,34.1,4.6,29.4,32.6,1.7,111
2011-07-01 16:30:06,35.2,4.9,30.3,32.6,2.0,112
2011-07-01 16:35:06,36.2,5.0,31.2,32.6,2.4,111
2011-07-01 16:40:06,36.3,5.1,31.2,32.6,2.4,111
2011-07-01 16:45:06,36.2,7.7,28.5,32.6,2.4,112
2011-07-01 16:50:06,36.8,6.9,30.0,32.6,2.6,111
2011-07-01 16:55:06,36.8,7.2,29.6,32.6,2.7,112
2011-07-01 17:00:06,36.5,5.0,31.5,32.6,2.7,111
2011-07-01 17:05:06,35.4,7.2,28.1,32.6,2.4,112
2011-07-01 17:10:06,34.3,8.3,26.0,32.6,2.1,111
2011-07-01 17:15:06,33.9,9.1,24.7,32.6,1.9,111
2011-07-01 17:20:06,34.3,11.5,22.8,32.6,2.0,111
2011-07-01 17:25:06,34.5,9.4,25.1,32.6,2.0,112
2011-07-01 17:30:06,33.6,10.0,23.6,32.5,1.8,112
2011-07-01 17:35:06,32.2,9.6,22.6,32.5,1.3,111
2011-07-01 17:40:06,31.0,10.3,20.7,32.5,1.4,112
2011-07-01 17:45:06,28.2,10.4,17.8,32.5,2.2,112
2011-07-01 17:50:06,26.2,9.4,16.7,32.6,2.3,111
2011-07-01 17:55:06,25.7,8.1,17.6,32.6,2.3,111
2011-07-01 18:00:06,27.8,5.4,22.4,32.6,2.3,112
2011-07-01 18:05:06,31.3,4.8,26.5,32.6,1.9,112
2011-07-01 18:10:06,32.3,0.0,32.3,32.6,1.3,111
2011-07-01 18:15:06,31.5,-0.5,32.0,32.5,1.5,112
2011-07-01 18:20:06,30.8,-0.5,31.3,32.5,2.1,112
2011-07-01 18:25:06,30.2,0.2,30.0,32.5,2.3,111
2011-07-01 18:30:06,29.9,0.2,29.7,32.5,2.3,112
2011-07-01 18:35:06,29.8,0.8,29.0,32.6,2.3,111
2011-07-01 18:40:06,30.3,1.2,29.1,32.6,2.3,111
2011-07-01 18:45:06,30.6,-0.5,31.1,32.5,2.3,112
2011-07-01 18:50:06,30.2,-0.4,30.7,32.5,2.3,113
2011-07-01 18:55:06,29.9,0.4,29.5,32.5,2.3,111
2011-07-01 19:00:06,29.7,1.9,27.8,32.5,2.3,111
2011-07-01 19:05:06,29.7,3.6,26.1,32.5,2.3,111
2011-07-01 19:10:06,29.9,4.0,25.9,32.5,2.3,112
2011-07-01 19:15:06,30.1,4.0,26.1,32.5,2.3,112
2011-07-01 19:20:06,30.1,4.1,26.0,32.5,2.3,112
2011-07-01 19:25:06,29.9,4.4,25.6,32.5,2.3,111
2011-07-01 19:30:06,29.9,3.8,26.0,32.5,2.3,112
2011-07-01 19:35:06,30.0,3.7,26.2,32.5,2.3,112
2011-07-01 19:40:06,30.5,4.0,26.5,32.5,2.3,112
2011-07-01 19:45:06,31.3,3.0,28.3,32.5,2.2,111
2011-07-01 19:50:06,31.8,0.9,30.8,32.5,1.6,111
2011-07-01 19:55:06,31.8,-0.3,32.1,32.5,1.2,112
2011-07-01 20:00:06,31.7,-1.2,32.8,32.5,1.5,112
2011-07-01 20:05:06,31.6,-0.8,32.5,32.5,1.4,111
2011-07-01 20:10:06,31.8,-2.0,33.8,32.5,1.8,112
2011-07-01 20:15:06,31.6,-3.1,34.6,32.4,1.7,112
2011-07-01 20:20:06,30.8,-3.1,33.8,32.3,2.2,111
2011-07-01 20:25:06,29.8,-3.4,33.2,32.3,2.3,112
2011-07-01 20:30:06,28.7,-2.7,31.4,32.3,2.3,112
2011-07-01 20:35:06,28.0,-1.8,29.9,32.3,2.3,111
2011-07-01 20:40:06,27.8,-2.7,30.6,32.2,2.3,112
2011-07-01 20:45:06,27.6,-3.1,30.8,32.2,2.3,112
2011-07-01 20:50:06,27.7,-3.0,30.6,32.1,2.3,112
2011-07-01 20:55:06,27.7,-2.9,30.6,32.0,2.3,112
2011-07-01 21:00:06,27.5,-2.6,30.1,31.9,2.3,112
2011-07-01 21:05:06,27.1,-3.4,30.5,31.7,2.3,112
2011-07-01 21:10:06,26.5,-3.3,29.8,31.5,2.3,112
2011-07-01 21:15:06,26.0,-1.1,27.1,31.3,2.3,111
2011-07-01 21:20:06,25.8,-1.6,27.4,31.0,2.3,112
2011-07-01 21:25:06,25.0,-3.3,28.3,30.5,2.3,111
2011-07-01 21:30:06,25.3,-4.1,29.4,29.8,2.4,113
2011-07-01 21:35:06,25.2,-5.1,30.2,28.7,2.4,111
2011-07-01 21:40:06,25.0,-5.0,30.0,27.0,2.3,111
2011-07-01 21:45:06,24.9,-4.6,29.5,24.5,2.3,112
2011-07-01 21:50:06,24.8,-4.3,29.1,21.3,2.3,112
2011-07-01 21:55:06,24.7,-4.7,29.5,17.3,2.2,112
2011-07-01 22:00:06,24.6,-5.1,29.7,13.0,2.1,111
2011-07-01 22:05:06,24.5,-5.2,29.8,9.2,2.3,112
2011-07-01 22:10:06,24.5,-5.1,29.6,6.1,2.3,111
2011-07-01 22:15:06,24.6,-4.9,29.4,3.9,2.3,112
2011-07-01 22:20:06,24.6,-5.4,30.0,2.4,2.3,111
2011-07-01 22:25:06,24.6,-5.1,29.7,1.5,2.3,112
2011-07-01 22:30:06,24.6,-3.8,28.4,0.9,2.3,111
2011-07-01 22:35:06,24.5,-1.3,25.8,0.6,2.3,112
2011-07-01 22:40:06,24.5,2.6,21.9,0.5,2.3,111
2011-07-01 22:45:06,24.2,4.5,19.7,0.3,2.3,112
2011-07-01 22:50:06,21.6,4.7,16.9,0.3,2.3,111
2011-07-01 22:55:06,20.6,4.5,16.1,0.2,2.2,112
2011-07-01 23:00:06,20.2,4.9,15.3,0.2,2.3,112
2011-07-01 23:05:06,20.1,5.1,15.0,0.1,2.3,112
2011-07-01 23:10:06,20.0,4.9,15.0,0.1,2.3,111
2011-07-01 23:15:06,19.9,4.9,15.0,0.1,2.4,112
2011-07-01 23:20:06,19.8,4.9,14.9,0.1,2.3,111
2011-07-01 23:25:06,19.8,4.9,14.9,0.1,2.3,112
2011-07-01 23:30:06,19.8,4.7,15.1,0.1,2.3,111
2011-07-01 23:35:06,19.8,4.6,15.3,0.1,2.3,112
2011-07-01 23:40:06,19.9,4.9,15.0,0.1,2.3,112
2011-07-01 23:45:06,19.8,3.5,16.3,0.1,2.3,111
2011-07-01 23:50:06,19.8,3.9,15.9,0.1,2.3,112
2011-07-01 23:55:06,19.8,4.5,15.3,0.1,2.3,112
